Other Public Products
Issued by NWS Grand Forks, ND

Home | Current Version | Previous Version | Graphics & Text | Print | Product List | Glossary On
Versions: 1 2 3 4 5 6 7 8 9 10 11 12 13 14 15 16 17 18 19 20 21 22 23 24 25 26 27 28 29 30 31 32 33 34 35 36 37 38 39 40 41 42 43 44 45 46 47 48 49 50
514
FPUS83 KFGF 211710
OPUFGF
PRAIRIE TO PINES WEATHER ROUNDUP
NATIONAL WEATHER SERVICE EASTERN NORTH DAKOTA/GRAND FORKS ND
1200 PM CDT THU MAY 21 2015

 **SATELLITE DATA USED TO AUGMENT SKY COVER AT AUTOMATED STATIONS**
 *****  WEATHER ACROSS EASTERN NORTH DAKOTA  *****

CITY           SKY/WX    TMP DP  RH WIND       PRES   REMARKS
GRAND FORKS    MOSUNNY   63  35  35 N8        30.15S
GRAND FORKS AF SUNNY     62  37  38 VRB3      30.16S
GRAND CITY NWS   N/A     63 N/A N/A VRB2        N/A
BUXTON         NOT AVBL
DEVILS LAKE    SUNNY     61  27  27 E3        30.17R
FARGO          SUNNY     64  40  41 NW10      30.14S
WAHPETON ARPT  SUNNY     63  37  39 N9        30.14S
$$

 *****  WEATHER ACROSS CENTRAL AND WESTERN NORTH DAKOTA  *****

CITY           SKY/WX    TMP DP  RH WIND       PRES   REMARKS
JAMESTOWN      SUNNY     64  38  38 N6        30.16S
BISMARCK       SUNNY     71  34  25 NW7       30.18F
MINOT          SUNNY     66  37  34 VRB3      30.16S
MINOT AFB      SUNNY     69  36  29 VRB2      30.15S
GARRISON         N/A     69  36  29 N5        30.16F
WILLISTON      SUNNY     67  38  34 SE3       30.20F
DICKINSON      SUNNY     66  30  26 N5        30.20F
HETTINGER      SUNNY     62  29  28 CALM      30.24F
$$

 *****  OTHER OBSERVATIONS NORTHEAST NORTH DAKOTA  *****

CITY           SKY/WX    TMP DP  RH WIND       PRES   REMARKS
WALHALLA       FAIR      63  32  31 NE8       30.18S
LANGDON        FAIR      63  30  29 CALM      30.18R
CAVALIER       FAIR      59  36  41 N8        30.17S
GRAFTON        FAIR      61  36  39 N8        30.17S
CANDO          FAIR      63  27  25 CALM      30.18S
FORT TOTTEN      N/A     63  36  36 N5        29.95S
ROLLA          FAIR      63  23  22 NE5       30.19S
RUGBY          NOT AVBL
 ***** THE ABOVE OBSERVATIONS ARE NON NWS ARE NOT QUALITY
        CONTROLLED AND MAY MIS-REPORT RAIN FOR SNOW...
$$

 *****  OTHER OBSERVATIONS SOUTHEAST NORTH DAKOTA *****

CITY           SKY/WX    TMP DP  RH WIND       PRES   REMARKS
COOPERSTOWN    NOT AVBL
VALLEY CITY    FAIR      63  28  27 N6        30.16S
OAKES            N/A     64  41  42 NW8       30.16S
GWINNER        NOT AVBL
SHEYENNE NWR     N/A     64  36  35 N7        29.95S
BUFFALO        NOT AVBL
WYNDMERE         N/A     64  36  34 NW12        N/A
 ***** THE ABOVE OBSERVATIONS ARE NON NWS ARE NOT QUALITY
       CONTROLLED AND MAY MIS-REPORT RAIN FOR SNOW...
$$

  *****  WEATHER ACROSS NORTHERN MINNESOTA  *****

CITY           SKY/WX    TMP DP  RH WIND       PRES   REMARKS
FLAG ISLAND    SUNNY     54  30  40 N6        30.12S
WARROAD        SUNNY     55  39  54 E8        30.14R
ROSEAU         SUNNY     61  34  36 NW7       30.13S
HALLOCK        SUNNY     63  34  34 N14       30.15S
THF RVR FALLS  SUNNY     61  32  33 N9        30.14S
HALSTAD        NOT AVBL
FOSSTON        SUNNY     61  34  36 N14       30.13S
BAUDETTE       SUNNY     58  32  37 N12G17    30.12R
WASKISH        SUNNY     61  34  36 NW12      30.11R
CROOKSTON      SUNNY     63  34  34 N9        30.15
$$
  *****  WEATHER ACROSS CENTRAL AND WEST MINNESOTA  *****

CITY           SKY/WX    TMP DP  RH WIND       PRES   REMARKS
BEMIDJI        SUNNY     60  31  33 N10       30.11R
PARK RAPIDS    SUNNY     64  29  26 N13       30.09R
WADENA         SUNNY     63  36  36 N9G21     30.09R
DETROIT LAKES    N/A    N/A N/A N/A MISG        N/A
MOORHEAD       SUNNY     63  41  45 N10       30.15S
FERGUS FALLS   SUNNY     63  37  39 N13       30.13S
ELBOW LAKE     FAIR      63  39  41 N13       30.11S
MORRIS MN      SUNNY     66  36  32 N20       30.11S
STAPLES        SUNNY     64  30  27 N12G17    30.08S
WHEATON        SUNNY     63  37  39 NW15G22   30.15S
$$
  *****  WEATHER ELSEWHERE ACROSS MINNESOTA  *****

CITY           SKY/WX    TMP DP  RH WIND       PRES   REMARKS
DULUTH         SUNNY     58  35  42 SE8       30.02R
INTRNTL FALLS  SUNNY     58  32  37 N12       30.08S
ELY            SUNNY     57  27  30 NW7G18    30.03S
CLOQUET        SUNNY     64  30  27 N7G21     30.02R
BRAINERD       SUNNY     64  30  27 NW17G25   30.07R
HIBBING        SUNNY     63  29  27 N16G22    30.04S
ALEXANDRIA     SUNNY     64  36  35 N14G22    30.11R
SAINT CLOUD    SUNNY     66  37  34 N13G22    30.04S
MINNEAPOLIS    SUNNY     68  39  34 NW12G22   30.02S
$$

  *****  WEATHER ACROSS SOUTH DAKOTA  *****

CITY           SKY/WX    TMP DP  RH WIND       PRES   REMARKS
SIOUX FALLS    MOSUNNY   68  39  34 NW18G26   30.17F
BROOKINGS      SUNNY     64  37  36 NW18G25   30.16F
WATERTOWN      MOSUNNY   64  40  41 W12       30.16S
HURON          SUNNY     70  35  27 NW16G24   30.18F
SISSETON         N/A     67  34  29 N15G23    30.13F
ABERDEEN       SUNNY     68  40  35 NW16      30.17S
MITCHELL       SUNNY     70  36  28 NW15G24   30.21F
PIERRE         SUNNY     64  36  35 W12       30.23F
MOBRIDGE       SUNNY     70  31  23 NW10      30.18F
RAPID CITY     SUNNY     57  28  33 S14G20    30.24F
$$

  *****  SOME WEATHER IN NEARBY STATES *****

CITY           SKY/WX    TMP DP  RH WIND       PRES   REMARKS
GLASGOW MT     SUNNY     63  33  32 SE8G18    30.18F
GREAT FALLS MT SUNNY     60  38  43 SE7       30.04S
CHEYENNE WY    CLOUDY    40  37  89 S12       30.20F
SCOTTSBLUFF NE CLOUDY    51  39  63 SE8       30.23F
OMAHA NE       MOSUNNY   65  44  46 NW12      30.23F
DES MOINES IA  MOSUNNY   68  43  40 NW14      30.16F
DAVENPORT IA   SUNNY     62  41  46 W13G21    30.13F
CHICAGO IL     MOSUNNY   60  39  45 NW8G18    30.07F
EAU CLAIRE WI  SUNNY     68  39  34 W10       29.98F
LA CROSSE WI   SUNNY     70  42  36 SW9       30.02F
$$

  *****  SOME NATIONAL WEATHER *****

CITY           SKY/WX    TMP DP  RH WIND       PRES   REMARKS
LA GUARDIA NY  CLOUDY    61  33  35 SW10      29.97F
RALEIGH NC     TSTM      66  63  88 NE5       29.84F VSB 3/4
ATLANTA GA     MOSUNNY   76  60  57 NW9G23    29.99F
NEW ORLEANS LA PTSUNNY   85  71  63 NW9       30.04S HX  90
OKLAHOMA CITY  PTSUNNY   61  44  53 NE10      30.28S
ALBUQUERQUE NM CLOUDY    62  44  51 E25       30.16F
SALT LAKE CITY PTSUNNY   61  45  55 N6        29.96F
LOS ANGELES CA PTSUNNY   62  51  67 W9        29.97S
BOISE ID       MOSUNNY   66  50  56 W3        29.91F
SEATTLE WA     PTSUNNY   62  53  72 W3        29.89S
$$

*** WEATHER ACROSS MANITOBA...SASKATCHEWAN AND ONTARIO ***
                ***ONTARIO***

CITY           SKY/WX    TMP DP  RH WIND       PRES   REMARKS
GERALDTON      NOT AVBL
THUNDER BAY    MOSUNNY   61  28  29 N12G20    29.98F
SIOUX LOOKOUT  NOT AVBL
TORONTO        MOSUNNY   64  32  29 W15G26    29.90F
BIG TROUT LK   CLOUDY    32  19  59 N10G17    30.16R WCI  24
PICKLE LAKE    NOT AVBL
DRYDEN         SUNNY     52  23  32 N12G20    30.10R
KENORA         NOT AVBL
$$
                *** MANITOBA***

CITY           SKY/WX    TMP DP  RH WIND       PRES   REMARKS
BRANDON        NOT AVBL
DAUPHIN        NOT AVBL
ISLAND LAKE    MOSUNNY   46  23  39 NW10      30.19F
PILOT MOUND      N/A     61  27  27 N5          N/A
THE PAS        MOSUNNY   68  39  34 S13       30.10F
THOMPSON       NOT AVBL
WINNIPEG       MOSUNNY   61  36  39 N10G17    30.18R
CHURCHILL      MOSUNNY   34  23  64 NE5       30.25F
$$
                ***SASKATCHEWAN***

CITY           SKY/WX    TMP DP  RH WIND       PRES   REMARKS
ESTEVAN        NOT AVBL
KINDERSLEY     SUNNY     68  25  19 S20G26    30.13F
LLOYDMINSTER   NOT AVBL
PRINCE ALBERT  NOT AVBL
REGINA         NOT AVBL
YORKTON        NOT AVBL
N. BATTLEFORD  NOT AVBL



USA.gov is the U.S. government's official web portal to all federal, state and local government web resources and services.